Provincetown, Massachusetts, United States (02657)
Lat: 42.06N, Lon: 70.18W
Wx Zone: MAZ022
Local Info
Past Weather Observations for Today

NOTE: This archive is for the closest National Weather Service station to Provincetown. Information may differ from the station used for current weather conditions.

Click here for Long-term Archive

Time Weather Temperature Dewpoint Humidity Pressure Winds Precip Visibility
13:11
Overcast
Light Rain
63°F / 17°C 59°F / 15°C 88% 29.47 in
(998 mb)
NNE 9.2 mph
(NNE 15 kph)
0.00 in
(0.00 mm)
5SM
12:56
Overcast
Light Rain
63°F / 17°C 57°F / 14°C 83% 29.5 in
(999 mb)
N 10.4 mph
(N 17 kph)
0.00 in
(0.00 mm)
10SM
11:56
Mostly Cloudy
64°F / 18°C 57°F / 14°C 78% 29.5 in
(999 mb)
NNE 12.7 mph
(NNE 20 kph)
- 10SM
11:20
Overcast
63°F / 17°C 57°F / 14°C 83% 29.5 in
(999 mb)
N 6.9 mph
(N 11 kph)
- 10SM
10:56
Overcast
61°F / 16°C 57°F / 14°C 88% 29.53 in
(1000 mb)
N 6.9 mph
(N 11 kph)
- 10SM
09:56
Overcast
59°F / 15°C 57°F / 14°C 94% 29.53 in
(1000 mb)
NNW 8.1 mph
(NNW 13 kph)
0.00 in
(0.00 mm)
9SM
09:37
Overcast
Light Rain
59°F / 15°C 55°F / 13°C 88% 29.53 in
(1000 mb)
N 8.1 mph
(N 13 kph)
0.00 in
(0.00 mm)
7SM
08:56
Overcast
59°F / 15°C 55°F / 13°C 88% 29.56 in
(1001 mb)
N 11.5 mph
(N 19 kph)
- 10SM
07:56
Partly Cloudy
59°F / 15°C 55°F / 13°C 88% 29.53 in
(1000 mb)
N 11.5 mph
(N 19 kph)
- 10SM
06:56
Partly Cloudy
57°F / 14°C 55°F / 13°C 94% 29.53 in
(1000 mb)
N 12.7 mph
(N 20 kph)
- 10SM
06:11
Partly Cloudy
57°F / 14°C 55°F / 13°C 94% 29.53 in
(1000 mb)
NE 12.7 mph
(NE 20 kph)
- 10SM
05:56
Mostly Cloudy
57°F / 14°C 55°F / 13°C 94% 29.53 in
(1000 mb)
NE 15 mph
(NE 24 kph)
0.00 in
(0.00 mm)
10SM
05:37
Overcast
57°F / 14°C 55°F / 13°C 94% 29.53 in
(1000 mb)
NNE 12.7 mph
(NNE 20 kph)
0.00 in
(0.00 mm)
10SM
04:56
Overcast
59°F / 15°C 57°F / 14°C 94% 29.53 in
(1000 mb)
NE 13.8 mph
(NE 22 kph)
0.01 in
(0.25 mm)
10SM
03:56
Overcast
Light Rain
61°F / 16°C 57°F / 14°C 88% 29.56 in
(1001 mb)
E 8.1 mph
(E 13 kph)
0.02 in
(0.51 mm)
10SM
03:26
Overcast
Light Rain
61°F / 16°C 57°F / 14°C 88% 29.53 in
(1000 mb)
NE 11.5 mph
(NE 19 kph)
0.01 in
(0.25 mm)
9SM
03:16
Overcast
Light Rain
61°F / 16°C 57°F / 14°C 88% 29.53 in
(1000 mb)
Variable 4.6 mph
(Variable 7 kph)
0.01 in
(0.25 mm)
9SM
02:56
Mostly Cloudy
61°F / 16°C 57°F / 14°C 88% 29.53 in
(1000 mb)
ENE 9.2 mph
(ENE 15 kph)
- 10SM
02:40
Partly Cloudy
61°F / 16°C 57°F / 14°C 88% 29.53 in
(1000 mb)
NE 15 mph
(NE 24 kph)
- 10SM
02:17
Mostly Cloudy
61°F / 16°C 57°F / 14°C 88% 29.56 in
(1001 mb)
NE 10.4 mph
(NE 17 kph)
- 10SM
02:05
Mostly Cloudy
61°F / 16°C 57°F / 14°C 88% 29.56 in
(1001 mb)
ENE 9.2 mph
(ENE 15 kph)
- 10SM
01:56
Mostly Cloudy
61°F / 16°C 57°F / 14°C 88% 29.56 in
(1001 mb)
NE 11.5 mph
(NE 19 kph)
0.00 in
(0.00 mm)
10SM
01:21
Mostly Cloudy
Light Rain
61°F / 16°C 57°F / 14°C 88% 29.62 in
(1003 mb)
NE 9.2 mph
(NE 15 kph)
0.00 in
(0.00 mm)
10SM
00:56
Mostly Cloudy
61°F / 16°C 57°F / 14°C 88% 29.62 in
(1003 mb)
NE 6.9 mph
(NE 11 kph)
0.01 in
(0.25 mm)
10SM
00:38
Overcast
61°F / 16°C 57°F / 14°C 88% 29.62 in
(1003 mb)
NNE 10.4 mph
(NNE 17 kph)
0.01 in
(0.25 mm)
10SM
00:16
Overcast
61°F / 16°C 57°F / 14°C 88% 29.65 in
(1004 mb)
NNE 9.2 mph
(NNE 15 kph)
0.01 in
(0.25 mm)
10SM
00:12
Overcast
Thunder Storms
59°F / 15°C 57°F / 14°C 94% 29.65 in
(1004 mb)
NE 6.9 mph
(NE 11 kph)
0.01 in
(0.25 mm)
10SM
Time Weather Temperature Dewpoint Humidity Pressure Winds Precip Visibility


Weather for websites

WeatherForYou.com, LLC is not responsible for any damages or problems caused by this service. Current weather conditions are obtained from the closest station including government and personal stations which may have varying degrees of accuracy. Weather forecasts are derived from the NOAA NDFD. Like all things, this site belongs to Jesus Christ... He just trusts me to maintain it. If you have any questions or comments email webmaster@weatherforyou.com

Copyright © 2014, WeatherForYou.com LLC. All rights reserved.